Other Public Products
Issued by NWS Grand Forks, ND

Home | Current Version | Previous Version | Graphics & Text | Print | Product List | Glossary On
Versions: 1 2 3 4 5 6 7 8 9 10 11 12 13 14 15 16 17 18 19 20 21 22 23 24 25 26 27 28 29 30 31 32 33 34 35 36 37 38 39 40 41 42 43 44 45 46 47 48 49 50
000
FPUS83 KFGF 220010
OPUFGF
PRAIRIE TO PINES WEATHER ROUNDUP
NATIONAL WEATHER SERVICE EASTERN NORTH DAKOTA/GRAND FORKS ND
600 PM CST SUN DEC 21 2014

 **SATELLITE DATA USED TO AUGMENT SKY COVER AT AUTOMATED STATIONS**
 *****  WEATHER ACROSS EASTERN NORTH DAKOTA  *****

CITY           SKY/WX    TMP DP  RH WIND       PRES   REMARKS
GRAND FORKS    CLOUDY    32  30  92 SE13      29.59F WCI  22
6HR MIN TEMP:  31; 6HR MAX TEMP:  32;

GRAND FORKS AF CLOUDY    32  32 100 S9        29.58F WCI  24
GRAND CITY NWS   N/A     32 N/A N/A SE9         N/A  WCI  24
BUXTON         NOT AVBL
DEVILS LAKE    CLOUDY    30  25  80 SE13      29.49S WCI  20
6HR MIN TEMP:  25; 6HR MAX TEMP:  30;

FARGO          CLOUDY    35  31  85 SE12      29.58F
6HR MIN TEMP:  33; 6HR MAX TEMP:  35;

WAHPETON ARPT  CLOUDY    32  32 100 SE13      29.59F WCI  22
$$

 *****  WEATHER ACROSS CENTRAL AND WESTERN NORTH DAKOTA  *****

CITY           SKY/WX    TMP DP  RH WIND       PRES   REMARKS
JAMESTOWN      CLOUDY    32  30  92 E10       29.49S WCI  24
6HR MIN TEMP:  31; 6HR MAX TEMP:  33;

BISMARCK       CLEAR     29  27  92 S10       29.44R WCI  20
6HR MIN TEMP:  28; 6HR MAX TEMP:  39;

MINOT          CLOUDY    34  30  85 E10       29.40R
6HR MIN TEMP:  28; 6HR MAX TEMP:  38;

MINOT AFB      MOCLDY    32  32 100 E13       29.39S WCI  23
6HR MIN TEMP:  26; 6HR MAX TEMP:  34;

GARRISON         N/A     30  27  88 S9        29.40R WCI  22
6HR MIN TEMP:  30; 6HR MAX TEMP:  39;

WILLISTON      CLOUDY    35  28  75 CALM      29.35R
6HR MIN TEMP:  29; 6HR MAX TEMP:  37;

DICKINSON      LGT RAIN  40  36  86 SW10      29.34R
6HR MIN TEMP:  38; 6HR MAX TEMP:  43; 6HR PCP: TRACE;

HETTINGER      MIX PCPN  37  29  72 CALM      29.39R
6HR MIN TEMP:  36; 6HR MAX TEMP:  41; 6HR PCP: TRACE;

$$

 *****  OTHER OBSERVATIONS NORTHEAST NORTH DAKOTA  *****

CITY           SKY/WX    TMP DP  RH WIND       PRES   REMARKS
WALHALLA         N/A     30  30 100 SE14      29.57S FOG     WCI  20
LANGDON        FOG       28  28 100 MISG      29.52S VSB 1/2
CAVALIER       CLOUDY    32  32 100 SE9       29.58F FOG     WCI  24
GRAFTON        NOT AVBL
CANDO          CLOUDY    30  30 100 SE12G18   29.50S FOG     WCI  21
FORT TOTTEN    NOT AVBL
ROLLA          FOG       27  27 100 S13       29.49S VSB 1/4 WCI  16
RUGBY          CLOUDY    28  28 100 SE15      29.46S FOG     WCI  17
 ***** THE ABOVE OBSERVATIONS ARE NON NWS ARE NOT QUALITY
        CONTROLLED AND MAY MIS-REPORT RAIN FOR SNOW...
$$

 *****  OTHER OBSERVATIONS SOUTHEAST NORTH DAKOTA *****

CITY           SKY/WX    TMP DP  RH WIND       PRES   REMARKS
COOPERSTOWN    NOT AVBL
VALLEY CITY    CLOUDY    30  30 100 SE15      29.52F FOG     WCI  19
OAKES            N/A     28  28 100 E12       29.52R FOG     WCI  18
GWINNER        CLOUDY    34  34 100 SE16G23   29.55R WCI  23
SHEYENNE NWR     N/A     32  31  95 SE13      29.95  WCI  22
BUFFALO        NOT AVBL
WYNDMERE         N/A     34  34 100 SE12        N/A
 ***** THE ABOVE OBSERVATIONS ARE NON NWS ARE NOT QUALITY
       CONTROLLED AND MAY MIS-REPORT RAIN FOR SNOW...
$$

  *****  WEATHER ACROSS NORTHERN MINNESOTA  *****

CITY           SKY/WX    TMP DP  RH WIND       PRES   REMARKS
FLAG ISLAND    CLOUDY    30  28  93 S13       29.65S WCI  20
WARROAD        CLOUDY    30  28  93 S8        29.66R WCI  23
ROSEAU         CLOUDY    32  27  80 SE9       29.64S WCI  24
HALLOCK        CLOUDY    32  30  93 CALM      29.61S FOG
THF RVR FALLS  CLOUDY    32  30  93 SE9       29.62R WCI  24
6HR MIN TEMP:  30; 6HR MAX TEMP:  32;

HALSTAD          N/A     33  30  90 SE12        N/A  WCI  24
FOSSTON        CLOUDY    30  28  93 SE7       29.62F WCI  23
BAUDETTE       CLOUDY    31  29  92 VRB3      29.66S
6HR MIN TEMP:  31; 6HR MAX TEMP:  31;

WASKISH        CLOUDY    34  30  86 CALM      29.66F
CROOKSTON      CLOUDY    32  30  93 SE8       29.62S WCI  25
$$
  *****  WEATHER ACROSS CENTRAL AND WEST MINNESOTA  *****

CITY           SKY/WX    TMP DP  RH WIND       PRES   REMARKS
BEMIDJI        CLOUDY    32  31  95 SE10      29.64S WCI  24
PARK RAPIDS    CLOUDY    33  32  96 SE8       29.63F FOG
6HR MIN TEMP:  31; 6HR MAX TEMP:  33;

WADENA         CLOUDY    32  30  93 SE14      29.62F FOG     WCI  22
DETROIT LAKES  CLOUDY    32  32 100 SE14      29.61S FOG     WCI  22
MOORHEAD       CLOUDY    34  34 100 SE8       29.59F
FERGUS FALLS   CLOUDY    34  32  93 SE15      29.62S FOG     WCI  24
ELBOW LAKE     CLOUDY    33  33 100 SE14      29.59F FOG     WCI  23
6HR MIN TEMP:  31; 6HR MAX TEMP:  33;

MORRIS MN      CLOUDY    34  34 100 SE14      29.59S FOG     WCI  24
STAPLES        CLOUDY    32  32 100 SE6       29.65S FOG
WHEATON        CLOUDY    30  30 100 SE14      29.59S FOG     WCI  20
$$
  *****  WEATHER ELSEWHERE ACROSS MINNESOTA  *****

CITY           SKY/WX    TMP DP  RH WIND       PRES   REMARKS
DULUTH         FRZ DRZL  33  31  92 SE12      29.73F VSB 1   WCI  24
6HR MIN TEMP:  31; 6HR MAX TEMP:  32; 6HR PCP: TRACE;

INTRNTL FALLS  CLOUDY    32  30  92 SE7       29.70S FOG
6HR MIN TEMP:  30; 6HR MAX TEMP:  32;

ELY            CLOUDY    30  30 100 S8        29.74S FOG     WCI  23
CLOQUET        CLOUDY    32  30  93 SE5       29.73S FOG
BRAINERD       CLOUDY    33  33 100 SE7       29.68S FOG
6HR MIN TEMP:  32; 6HR MAX TEMP:  33;

HIBBING        CLOUDY    33  30  88 SE8       29.71S FOG
6HR MIN TEMP:  31; 6HR MAX TEMP:  33;

ALEXANDRIA     FOG       34  33  96 SE10      29.62F VSB 3/4
6HR MIN TEMP:  32; 6HR MAX TEMP:  34;

SAINT CLOUD    CLOUDY    36  34  92 SE12      29.68F FOG
6HR MIN TEMP:  35; 6HR MAX TEMP:  36;

MINNEAPOLIS    CLOUDY    36  35  96 SE8       29.74F FOG
6HR MIN TEMP:  34; 6HR MAX TEMP:  38; 6HR PCP:  0.08;

$$

  *****  WEATHER ACROSS SOUTH DAKOTA  *****

CITY           SKY/WX    TMP DP  RH WIND       PRES   REMARKS
SIOUX FALLS    CLOUDY    38  36  92 S21G32    29.58S
6HR MIN TEMP:  34; 6HR MAX TEMP:  38;

BROOKINGS      NOT AVBL
WATERTOWN      CLOUDY    34  33  96 S16       29.52S FOG     WCI  24
6HR MIN TEMP:  31; 6HR MAX TEMP:  34;

HURON          PTCLDY    35  32  88 S14       29.48F
6HR MIN TEMP:  31; 6HR MAX TEMP:  36;

SISSETON         N/A     33  33 100 S13       29.54F WCI  24
ABERDEEN       CLOUDY    33  30  88 SE5       29.51S
6HR MIN TEMP:  32; 6HR MAX TEMP:  35;

MITCHELL       CLOUDY    36  33  89 S17G30    29.51S
PIERRE         MOCLDY    31  28  89 NE8       29.40S WCI  23
6HR MIN TEMP:  30; 6HR MAX TEMP:  35;

MOBRIDGE       MOCLDY    30  28  92 E12       29.41R WCI  20
RAPID CITY     CLOUDY    39  27  62 N8        29.41R
6HR MIN TEMP:  38; 6HR MAX TEMP:  50; 6HR PCP: TRACE;

$$

  *****  SOME WEATHER IN NEARBY STATES *****

CITY           SKY/WX    TMP DP  RH WIND       PRES   REMARKS
GLASGOW MT     MOCLDY    32  30  92 SW5       29.36R
6HR MIN TEMP:  31; 6HR MAX TEMP:  33; 6HR PCP:  0.05;

GREAT FALLS MT CLOUDY    41  22  46 W16       29.57R
6HR MIN TEMP:  41; 6HR MAX TEMP:  48;

CHEYENNE WY    CLOUDY    39  31  72 NW14G22   29.55R
6HR MIN TEMP:  39; 6HR MAX TEMP:  47; 6HR PCP: TRACE;

SCOTTSBLUFF NE CLOUDY    40  32  73 NW10      29.49R
6HR MIN TEMP:  39; 6HR MAX TEMP:  46; 6HR PCP: TRACE;

OMAHA NE       CLOUDY    42  39  89 S17       29.72F
6HR MIN TEMP:  41; 6HR MAX TEMP:  42;

DES MOINES IA  CLOUDY    42  37  82 S12       29.81F
6HR MIN TEMP:  41; 6HR MAX TEMP:  43;

DAVENPORT IA   CLOUDY    37  31  78 SE15      29.96S
6HR MIN TEMP:  37; 6HR MAX TEMP:  40;

CHICAGO IL     CLOUDY    35  28  75 S10       30.08S
6HR MIN TEMP:  34; 6HR MAX TEMP:  36;

EAU CLAIRE WI  MIX PCPN  36  34  92 S9        29.80F
6HR MIN TEMP:  33; 6HR MAX TEMP:  37; 6HR PCP:  0.02;

LA CROSSE WI   LGT RAIN  39  36  89 S17       29.85F
6HR MIN TEMP:  38; 6HR MAX TEMP:  39; 6HR PCP: TRACE;

$$

  *****  SOME NATIONAL WEATHER *****

CITY           SKY/WX    TMP DP  RH WIND       PRES   REMARKS


USA.gov is the U.S. government's official web portal to all federal, state and local government web resources and services.